Zurück zum Katalog

DMSP 5D-3 F17 DEB

AktivSSO
NORAD 29637·DEBRIS·🇺🇸 United States

Gestartet Nov 4, 2006 von Vandenberg Space Force Base

Loading…

Nächste Überflüge (nächste 24 Stunden)

TLE

AktuellSource: Space-Track

Epoche: Sep 14, 2026, 09:52 UTC

1 29637U 06050BV  26257.41140059  .00002472  00000-0  72415-3 0  9991
2 29637  98.5093 302.3358 0008081 183.1195 176.9947 14.44780221 28064

Verfolge DMSP 5D-3 F17 DEB in Echtzeit mit AllMySat

Download on the App Store